TimeMDT,TemperatureF,Dew PointF,Humidity,Sea Level PressureIn,VisibilityMPH,Wind Direction,Wind SpeedMPH,Gust SpeedMPH,PrecipitationIn,Events,Conditions,WindDirDegrees,DateUTC
12:53 AM,52.0,23.0,32,29.67,10.0,WSW,9.2,-,N/A,,Clear,250,2013-03-23 06:53:00
1:53 AM,51.1,24.1,35,29.67,10.0,WSW,12.7,-,N/A,,Clear,250,2013-03-23 07:53:00
2:53 AM,52.0,26.1,37,29.66,10.0,West,15.0,-,N/A,,Clear,260,2013-03-23 08:53:00
3:53 AM,53.1,25.0,34,29.67,10.0,West,13.8,-,N/A,,Clear,270,2013-03-23 09:53:00
4:53 AM,48.9,24.1,38,29.67,10.0,WSW,12.7,-,N/A,,Clear,250,2013-03-23 10:53:00
5:53 AM,51.1,26.1,38,29.68,10.0,West,15.0,-,N/A,,Clear,260,2013-03-23 11:53:00
6:53 AM,48.9,27.0,43,29.71,10.0,West,13.8,-,N/A,,Clear,260,2013-03-23 12:53:00
7:53 AM,51.1,27.0,39,29.74,10.0,West,13.8,-,N/A,,Clear,260,2013-03-23 13:53:00
8:53 AM,54.0,27.0,35,29.76,10.0,West,11.5,-,N/A,,Clear,270,2013-03-23 14:53:00
9:53 AM,59.0,26.1,28,29.76,10.0,West,17.3,25.3,N/A,,Clear,260,2013-03-23 15:53:00
10:53 AM,62.1,24.1,23,29.75,8.0,West,19.6,35.7,N/A,,Clear,260,2013-03-23 16:53:00
11:53 AM,66.9,12.0,12,29.73,4.0,West,29.9,41.4,N/A,,Haze,280,2013-03-23 17:53:00
12:53 PM,68.0,9.0,10,29.72,5.0,WNW,28.8,38.0,N/A,,Haze,300,2013-03-23 18:53:00
1:53 PM,70.0,12.0,11,29.71,2.0,West,25.3,44.9,N/A,,Haze,280,2013-03-23 19:53:00
2:04 PM,69.8,6.8,9,29.86,4.0,WNW,31.1,41.4,N/A,,Haze,290,2013-03-23 20:04:00
2:13 PM,69.8,6.8,9,29.86,2.0,WNW,28.8,46.0,N/A,,Haze,290,2013-03-23 20:13:00
2:28 PM,69.8,8.6,9,29.86,1.8,WNW,32.2,47.2,N/A,,Haze,290,2013-03-23 20:28:00
2:33 PM,69.8,6.8,9,29.86,0.8,West,40.3,49.5,N/A,,Haze,280,2013-03-23 20:33:00
2:40 PM,69.8,6.8,9,29.85,0.5,West,34.5,49.5,N/A,,Haze,280,2013-03-23 20:40:00
2:53 PM,70.0,3.9,7,29.70,1.0,WNW,32.2,47.2,N/A,,Haze,300,2013-03-23 20:53:00
2:56 PM,69.8,5.0,8,29.85,2.0,WNW,26.5,42.6,N/A,,Haze,290,2013-03-23 20:56:00
3:15 PM,69.8,5.0,8,29.85,1.8,WNW,31.1,46.0,N/A,,Haze,290,2013-03-23 21:15:00
3:24 PM,69.8,5.0,8,29.85,0.8,WNW,39.1,48.3,N/A,,Haze,290,2013-03-23 21:24:00
3:29 PM,69.8,6.8,9,29.85,1.0,West,29.9,48.3,N/A,,Haze,280,2013-03-23 21:29:00
3:53 PM,68.0,6.1,9,29.70,1.2,West,29.9,46.0,N/A,,Haze,280,2013-03-23 21:53:00
4:53 PM,68.0,3.9,8,29.71,2.0,West,28.8,47.2,N/A,,Haze,280,2013-03-23 22:53:00
5:01 PM,68.0,1.4,7,29.86,2.0,WNW,29.9,47.2,N/A,,Haze,290,2013-03-23 23:01:00
5:17 PM,68.0,1.4,7,29.86,1.5,West,34.5,43.7,N/A,,Haze,280,2013-03-23 23:17:00
5:26 PM,66.2,1.4,8,29.86,2.0,WNW,29.9,43.7,N/A,,Haze,300,2013-03-23 23:26:00
5:34 PM,66.2,1.4,8,29.86,3.0,WNW,33.4,46.0,N/A,,Haze,300,2013-03-23 23:34:00
5:39 PM,66.2,-0.4,7,29.87,2.0,WNW,32.2,46.0,N/A,,Haze,290,2013-03-23 23:39:00
5:53 PM,66.9,1.9,8,29.73,2.5,WNW,31.1,43.7,N/A,,Haze,290,2013-03-23 23:53:00
6:02 PM,66.2,1.4,8,29.86,5.0,WNW,24.2,40.3,N/A,,Haze,290,2013-03-24 00:02:00
6:53 PM,64.0,1.9,8,29.75,9.0,West,25.3,38.0,N/A,,Clear,280,2013-03-24 00:53:00
7:53 PM,61.0,1.0,9,29.78,10.0,West,19.6,32.2,N/A,,Clear,280,2013-03-24 01:53:00
8:53 PM,57.0,1.9,11,29.81,10.0,West,12.7,-,N/A,,Clear,280,2013-03-24 02:53:00
9:53 PM,55.0,1.0,11,29.83,10.0,West,15.0,-,N/A,,Clear,280,2013-03-24 03:53:00
10:53 PM,51.1,-0.9,12,29.85,10.0,West,13.8,-,N/A,,Clear,280,2013-03-24 04:53:00
11:53 PM,52.0,-2.0,11,29.85,10.0,WNW,18.4,-,N/A,,Clear,290,2013-03-24 05:53:00